Thermal, CA

3:02 AM PDT on October 17, 2017 (GMT -0700)
Desert Resorts Regional

Weather History for KTRM - February, 2013

Change the Weather History Date:

Saturday, February 16, 2013

  Actual Average Record
Temperature  
Mean Temperature 59 °F 58 °F  
Max Temperature 81 °F 75 °F 92 °F (2016)
Min Temperature 37 °F 41 °F 25 °F (1990)
Degree Days  
Heating Degree Days 6 7  
Month to date heating degree days 130 133  
Since 1 July heating degree days 957 993  
Cooling Degree Days 0 0  
Month to date cooling degree days 0 0  
Year to date cooling degree days 0 2  
Growing Degree Days 12 (Base 50)    
Moisture  
Dew Point 21 °F    
Average Humidity 30    
Maximum Humidity 53    
Minimum Humidity 7    
Precipitation  
Precipitation 0.00 in 0.03 in 0.62 in (1980)
Month to date precipitation T 0.35  
Year to date precipitation 0.37 1.02  
Since 1 July precipitation 2.55  
Snow  
Snow 0.00 in - - ()
Month to date snowfall 0.0  
Year to date snowfall 0.0  
Snow Depth 0.00 in    
Sea Level Pressure  
Sea Level Pressure 30.09 in    
Wind  
Wind Speed 4 mph (NW)    
Max Wind Speed 9 mph    
Max Gust Speed 13 mph    
Visibility 10 miles    
Events      
T = Trace of Precipitation, MM = Missing Value Source: NWS Daily Summary

Daily Weather History Graph

Daily Weather History Graph

Search for Another Location

Airport or City:

Trip Planner

Search our weather history database for the weather conditions in past years. The results will help you decide how hot, cold, wet, or windy it might be!

Date:

Astronomy

Feb. 16, 2013 Rise Set
Actual Time 6:27 AM PST 5:30 PM PST
Civil Twilight 6:02 AM PST 5:55 PM PST
Nautical Twilight 5:32 AM PST 6:24 PM PST
Astronomical Twilight 5:04 AM PST 6:53 PM PST
Moon 10:04 AM PST (2/16) No Moon Set
Length of Visible Light 11h 53m
Length of Day
11h 02m
Waxing Crescent, 40% of the Moon is Illuminated
Feb 16
Waxing Crescent
Feb 17
First Quarter
Feb 25
Full
Mar 4
Last Quarter
Mar 11
New

Hourly Weather History & Observations

Time (PST) Temp. Windchill Dew Point Humidity Pressure Visibility Wind Dir Wind Speed Gust Speed Precip Events Conditions
12:52 AM 52.0 °F - 24.1 °F 34% 30.22 in 10.0 mi NW 6.9 mph - N/A   Clear
1:52 AM 46.9 °F - 24.1 °F 41% 30.21 in 10.0 mi Calm Calm - N/A   Clear
2:52 AM 45.0 °F - 24.1 °F 44% 30.19 in 10.0 mi Calm Calm - N/A   Clear
3:52 AM 43.0 °F 40.3 °F 23.0 °F 45% 30.18 in 10.0 mi NNW 4.6 mph - N/A   Clear
4:52 AM 44.1 °F 42.5 °F 23.0 °F 43% 30.19 in 10.0 mi NNW 3.5 mph - N/A   Clear
5:52 AM 45.0 °F - 21.9 °F 40% 30.19 in 10.0 mi Calm Calm - N/A   Clear
6:52 AM 42.1 °F 39.2 °F 27.0 °F 55% 30.21 in 10.0 mi West 4.6 mph - N/A   Clear
7:52 AM 55.0 °F - 28.0 °F 35% 30.22 in 10.0 mi NW 3.5 mph - N/A   Clear
8:52 AM 64.0 °F - 28.0 °F 26% 30.22 in 10.0 mi NW 3.5 mph - N/A   Clear
9:52 AM 72.0 °F - 21.0 °F 15% 30.20 in 10.0 mi NNE 3.5 mph - N/A   Clear
10:52 AM 75.9 °F - 19.0 °F 12% 30.17 in 10.0 mi NW 3.5 mph - N/A   Clear
11:52 AM 78.1 °F - 14.0 °F 9% 30.14 in 10.0 mi Calm Calm - N/A   Clear
12:52 PM 78.1 °F - 12.9 °F 8% 30.09 in 10.0 mi WNW 3.5 mph - N/A   Clear
1:52 PM 81.0 °F - 10.9 °F 7% 30.05 in 10.0 mi NW 6.9 mph - N/A   Clear
2:52 PM 81.0 °F - 10.0 °F 7% 30.01 in 10.0 mi WNW 4.6 mph - N/A   Clear
3:52 PM 80.1 °F - 9.0 °F 7% 29.99 in 10.0 mi NW 5.8 mph - N/A   Clear
4:52 PM 79.0 °F - 12.0 °F 8% 29.97 in 10.0 mi Calm Calm - N/A   Clear
5:52 PM 66.9 °F - 19.9 °F 17% 29.96 in 10.0 mi SE 4.6 mph - N/A   Clear
6:52 PM 55.9 °F - 23.0 °F 28% 29.96 in 10.0 mi WSW 3.5 mph - N/A   Clear
7:52 PM 52.0 °F - 25.0 °F 35% 29.96 in 10.0 mi NNE 3.5 mph - N/A   Clear
8:52 PM 52.0 °F - 28.0 °F 40% 29.96 in 10.0 mi NNW 4.6 mph - N/A   Clear
9:52 PM 46.0 °F - 27.0 °F 47% 29.97 in 10.0 mi Calm Calm - N/A   Clear
10:52 PM 46.0 °F 43.9 °F 25.0 °F 44% 29.95 in 10.0 mi NNW 4.6 mph - N/A   Clear
11:52 PM 48.9 °F - 25.0 °F 39% 29.94 in 10.0 mi NNE 3.5 mph - N/A   Clear